Regional Weather Roundup
Issued by NWS Mobile, AL

Home | Current Version | Previous Version | Text Only | Print | Product List | Glossary On
Versions: 1 2 3 4 5 6 7 8 9 10 11 12 13 14 15 16 17 18 19 20 21 22 23 24 25 26 27 28 29 30 31 32 33 34 35 36 37 38 39 40 41 42 43 44 45 46 47 48 49 50
000
ASUS44 KMOB 232010
RWRMOB
REGIONAL WEATHER ROUNDUP
NATIONAL WEATHER SERVICE MOBILE AL
300 PM CDT TUE SEP 23 2014

NOTE: "FAIR" INDICATES FEW OR NO CLOUDS BELOW 12,000 FEET WITH NO
      SIGNIFICANT WEATHER AND/OR OBSTRUCTIONS TO VISIBILITY.

  * THESE STATIONS ARE PART OF THE UNIVERSITY OF SOUTH ALABAMA
    MESONET AND ARE NOT UNDER NWS OR FAA QUALITY CONTROL.

ALZ061>064-232100-
COASTAL ALABAMA

CITY           SKY/WX    TMP DP  RH WIND       PRES   REMARKS
MOBILE REG APT SUNNY     83  57  41 NE9       30.06F
BROOKLEY FIELD SUNNY     84  59  42 NE13      30.06F
USA CAMPUS*      N/A     82  55  39 E7        30.03F
DOG RIVER*     NOT AVBL


CITY           SKY/WX    TMP DP  RH WIND       PRES   REMARKS
MOUNT VERNON*    N/A     81  52  36 NE7       30.06F
SARALAND*      NOT AVBL
BAY MINETTE*   NOT AVBL
LOXLEY*          N/A     77  59  53 NE6       30.05
ROBERTSDALE*     N/A     79  64  61 SE3       30.05F
FAIRHOPE*      NOT AVBL
ELBERTA*         N/A     79  66  65 NE5       30.04F
FOLEY*         NOT AVBL
GRAND BAY*       N/A     84  57  39 E7        30.02F
DAUPHIN ISLND* NOT AVBL
BON SCOUR NWR* NOT AVBL
GULF SHORES    PTSUNNY   79  66  63 E8        30.05S

$$

ALZ051>060-232100-
INTERIOR SOUTHWEST AND SOUTH CENTRAL ALABAMA

CITY           SKY/WX    TMP DP  RH WIND       PRES   REMARKS
GREENVILLE     SUNNY     82  57  42 E8        30.09F
EVERGREEN      SUNNY     83  57  41 NE10      30.08F
CASTLEBERRY*   NOT AVBL
ATMORE*        NOT AVBL
DIXIE*         NOT AVBL
ANDALUSIA/OPP  MOSUNNY   85  60  42 E10       30.08F
ANDALUSIA*     NOT AVBL
FLORALA APT    MOSUNNY   82  62  50 E8        30.08F
FLORALA*       NOT AVBL

$$

FLZ001>006-232100-
WESTERN FLORIDA PANHANDLE

CITY           SKY/WX    TMP DP  RH WIND       PRES   REMARKS
PENSACOLA      SUNNY     77  65  66 NE9       30.05F
NAS PENSACOLA  MOSUNNY   79  66  64 E12       30.04F
MILTON         MOSUNNY   79  63  57 VRB7      30.06F
WHTNG S FIELD  MOSUNNY   81  66  60 NE12      30.06F


CITY           SKY/WX    TMP DP  RH WIND       PRES   REMARKS
WALNUT HILL*   NOT AVBL
JAY*           NOT AVBL
DUKE FIELD     MOSUNNY   81  70  69 NE8G18    30.05F
CRESTVIEW      SUNNY     82  65  56 NE10G17   30.07F
VALPARAISO     MOSUNNY   81  65  59 E10G20    30.05F
DESTIN         SUNNY     80  68  66 E8        30.05F

$$

MSZ076-079-232100-
INTERIOR SOUTHEAST MISSISSIPPI

CITY           SKY/WX    TMP DP  RH WIND       PRES   REMARKS
LEAKESVILLE*   NOT AVBL
AGRICOLA*      NOT AVBL

$$

MARINE OBSERVATIONS

STATION/POSITION TIME  TEMP    WIND        PRES    WAVE
                       AIR SEA DIR/SP/G            HT/PER
                 (UTC) (F)     (DEG/KT/KT) (MB)    (FT/S)
PASCAGOULA       2000   83     360/  9/ 13 1017.0F
PETIT BOIS ISLND 2000   81      70/  7/ 10 1017.7F
GRAND BAY        1900   80      60/  9     1019.0F
KATRINA CUT      1900   80      70/  9     1018.6S
CEDAR POINT      1900   77      60/  7     1018.6S
E DAUPHIN ISLAND 2000   76     110/  9/ 11 1017.4F
MIDDLE BAY LIGHT 1900   81      30/ 14     1017.3F
STATE DOCKS      2000   84 84              1017.4F
MEAHER PARK      1900   81      50/  6     1017.3F
WEEKS BAY        1900   82                   N/A
FORT MORGAN      2000   76     130/ 14/ 18 1017.0F
12 S ORANGE BCH  2000   74 84   60/ 14/ 17 1017.7F   3/ 4
PENSACOLA BAY    2000   78 83   80/  3/  7 1017.8F
64 S DAUPHIN ISL 1944   78 84   50/ 17/ 19 1017.0F   4/ 6
67 S FORT MORGAN 1900   81                 1016.3F

$$

SELECTED LOCATIONS ACROSS THE REGION

CITY           SKY/WX    TMP DP  RH WIND       PRES   REMARKS
NEW ORLEANS    MOSUNNY   83  54  36 N8        30.05F
GULFPORT       SUNNY     85  53  33 NE9       30.04F
PASCAGOULA AP  SUNNY     85  57  38 N9        30.04F
PASCAGOULA*    NOT AVBL
HATTIESBURG    SUNNY     84  55  36 SE9       30.08F
LAUREL         SUNNY    N/A N/A N/A N7G17     30.10F
MERIDIAN       SUNNY     83  50  31 CALM      30.10F
JACKSON        MOSUNNY   82  55  39 N12       30.11F
MONTGOMERY     MOSUNNY   84  57  39 NE12      30.10F
TROY           MOSUNNY   81  60  48 NE13G18   30.10F
KINSTON*       NOT AVBL
GENEVA*        NOT AVBL
ASHFORD*       NOT AVBL
DOTHAN         MOSUNNY   79  62  56 NE9       30.11F
PANAMA CITY    MOSUNNY   82  66  58 N9G20     30.03F

$$



USA.gov is the U.S. government's official web portal to all federal, state and local government web resources and services.